Location: Wald
(31.7579°N, 86.6655°W)
Time: 11:56:08
(UTC+00:00)

NOSS 3-4 (C) - Pass Details

Date: 14 July 2020
Orbit: 891 x 1321 km, 63.4° (Epoch: 12 July)

Event Time Altitude Azimuth Distance (km) Brightness Sun altitude
Rises 03:03:59 0° 334° (NNW) 3,907 7.9 -23.1°
Reaches altitude 10° 03:06:36 10° 338° (NNW) 3,007 7.0 -23.5°
Maximum altitude 03:13:47 61° 58° (ENE) 1,355 4.1 -24.5°
Enters shadow 03:16:11 44° 115° (ESE) 1,656 4.2 -24.8°
